Location: Napa Soda Springs
(38.3907°N, 122.2794°W)
Time: 08:06:14
(UTC+00:00)

NOSS 8 (A) - Pass Details

Date: 29 October 2020
Orbit: 376 x 1769 km, 63.3° (Epoch: 23 November)

Event Time Altitude Azimuth Distance (km) Brightness Sun altitude
Exits shadow 12:57:47 53° 343° (NNW) 515 4.5 -19.2°
Drops below altitude 10° 13:00:20 10° 25° (NNE) 1,416 7.2 -18.7°
Sets 13:02:15 0° 30° (NNE) 2,247 8.3 -18.3°
